< < Back
Terminal Aerodrome Forecast


Current Version              Previous Versions:   1  2  3  4  5  6  7  8  9  

Terminal Aerodrome Forecast

013
FTUS42 KJAX 300500 RRA
TAFSSI
TAF
KSSI 300550Z 3006/3106 VRB03KT P6SM FEW070 FEW250
     FM301500 07006KT P6SM FEW060 FEW250
     FM301800 09010KT P6SM SCT060
     FM310100 07006KT P6SM FEW070=



Latest METAR

243
SAUS70 KWBC 300900 RRL
MTRSSI
METAR KSSI 300853Z AUTO 33004KT 10SM SCT070 26/23 A2993 RMK AO2 SLP134
T02560228 56001


USA.gov is the U.S. government's official web portal to all federal, state and local government web resources and services.